星链-11401 (STARLINK-11401)

导读 | 星芒AI

STARLINK-11401 是 SpaceX 星链计划中的一颗低轨通信卫星,属于第5批星链卫星任务(5-5任务)的一部分,于2020年11月25日由猎鹰9号火箭从卡纳维拉尔角发射升空。该卫星运行在约550公里高的轨道上,旨在为全球用户提供高速互联网服务。作为星链星座的一部分,STARLINK-11401 采用先进推进系统和激光通信技术,支持星座内高速数据传输,提升网络效率与覆盖能力。

基本信息
目录编号:
61876
目录名称:
STARLINK-11401
国际标识:
2024-204C
轨道中心:
EARTH
卫星名称:
星链-11401
卫星全名:
星链-11401 (STARLINK-11401)
卫星状态:
在轨 (已飞行401 天)
发射日期:
2024-11-09 UTC
国别 :
美国 (US)
星等 :
--
轨道信息
数据来源 国际轨道数据
星历时间: 2025-12-15T06:00:02+0800
21小时前
查看轨道信息
半长轴: 6724.502km
偏心率: 0.0005142
轨道倾角: 53.154°
近地点辐角 40.581°
升交点赤经 54.126°
平近点角 208.367°
近地点: 342.909km
远地点: 349.825km
周期: 91.464分钟
每日圈数: 15.743911
详细信息
固有亮度:
5
最大亮度:
2.5
卫星平台:
Starlink V1.0
覆盖范围:
全球
运营商:
太空探索技术公司
运营商所在国:
美国
制造商(研发单位):
太空探索技术公司
制造商所在国:
美国
使用方式:
暂无
卫星简介
Starlink 计划是 SpaceX 推出的全球卫星互联网项目,通过发射低轨道卫星,为全球尤其是偏远地区提供高速、低延迟的互联网服务。自 2019 年起,Starlink 已部署数千颗卫星,旨在缩小全球数字鸿沟,推动互联网普及。该项目还为军事、航空等行业提供通信支持,带来广泛经济效益。
2D轨道图
3D轨道图
轨道高度分析图
轨道倾角分析图
轨道综合分析图
查看轨道综合分析图